Terminal Aerodrome Forecast
Issued by NWS

Home | Current Version | Previous Version | Text Only | Print | Product List | Glossary On
Versions: 1 2 3 4 5 6 7 8 9 10 11 12 13
000
FTUS45 KFGZ 051720
TAFSEZ
TAF
KSEZ 051720Z 0518/0618 18005KT P6SM BKN090
     FM051900 21007KT P6SM VCTS SCT070CB BKN110
      TEMPO 0520/0524 VRB15G25KT 5SM TSRA BKN060CB
     FM060300 04006KT P6SM BKN100=

USA.gov is the U.S. government's official web portal to all federal, state and local government web resources and services.